owner,sensor,date,latitude,longitude,vertical_datum,wind_speed,wind_to_direction,wind_speed_of_gust,qcFlag 
DISL,ioos:station:DISL:KATA:1,2011-06-01T00:00:00Z,30.2583,-88.2131,0.0,4.3,217.2,-9999.0,'1111122,1111122,1111122' 
DISL,ioos:station:DISL:KATA:1,2011-06-01T00:30:00Z,30.2583,-88.2131,0.0,4.48,220.0,-9999.0,'1111122,1111122,1111122' 
DISL,ioos:station:DISL:KATA:1,2011-06-01T01:00:00Z,30.2583,-88.2131,0.0,4.25,228.2,-9999.0,'1111122,1111122,1111122' 
DISL,ioos:station:DISL:KATA:1,2011-06-01T01:30:00Z,30.2583,-88.2131,0.0,4.15,230.2,-9999.0,'1111122,1111122,1111122' 
DISL,ioos:station:DISL:KATA:1,2011-06-01T02:00:00Z,30.2583,-88.2131,0.0,3.33,227.8,-9999.0,'1111122,1111122,1111122' 
DISL,ioos:station:DISL:KATA:1,2011-06-01T02:30:00Z,30.2583,-88.2131,0.0,3.71,236.0,-9999.0,'1111122,1111122,1111122' 
DISL,ioos:station:DISL:KATA:1,2011-06-01T03:00:00Z,30.2583,-88.2131,0.0,4.0,243.8,-9999.0,'1111122,1111122,1111122' 
DISL,ioos:station:DISL:KATA:1,2011-06-01T03:30:00Z,30.2583,-88.2131,0.0,3.32,246.4,-9999.0,'1111122,1111122,1111122' 
DISL,ioos:station:DISL:KATA:1,2011-06-01T04:00:00Z,30.2583,-88.2131,0.0,3.87,257.2,-9999.0,'1111122,1111122,1111122' 
DISL,ioos:station:DISL:KATA:1,2011-06-01T04:30:00Z,30.2583,-88.2131,0.0,3.2,250.0,-9999.0,'1111122,1111122,1111122' 
DISL,ioos:station:DISL:KATA:1,2011-06-01T05:00:00Z,30.2583,-88.2131,0.0,3.02,225.1,-9999.0,'1111122,1111122,1111122' 
DISL,ioos:station:DISL:KATA:1,2011-06-01T05:30:00Z,30.2583,-88.2131,0.0,2.86,225.7,-9999.0,'1111122,1111122,1111122' 
DISL,ioos:station:DISL:KATA:1,2011-06-01T06:00:00Z,30.2583,-88.2131,0.0,3.69,226.2,-9999.0,'1111122,1111122,1111122' 
DISL,ioos:station:DISL:KATA:1,2011-06-01T06:30:00Z,30.2583,-88.2131,0.0,3.98,223.6,-9999.0,'1111122,1111122,1111122' 
DISL,ioos:station:DISL:KATA:1,2011-06-01T07:00:00Z,30.2583,-88.2131,0.0,4.07,225.3,-9999.0,'1111122,1111122,1111122' 
DISL,ioos:station:DISL:KATA:1,2011-06-01T07:30:00Z,30.2583,-88.2131,0.0,3.67,224.7,-9999.0,'1111122,1111122,1111122' 
DISL,ioos:station:DISL:KATA:1,2011-06-01T08:00:00Z,30.2583,-88.2131,0.0,3.79,231.6,-9999.0,'1111122,1111122,1111122' 
DISL,ioos:station:DISL:KATA:1,2011-06-01T08:30:00Z,30.2583,-88.2131,0.0,3.3,232.0,-9999.0,'1111122,1111122,1111122' 
DISL,ioos:station:DISL:KATA:1,2011-06-01T09:00:00Z,30.2583,-88.2131,0.0,3.29,231.4,-9999.0,'1111122,1111122,1111122' 
DISL,ioos:station:DISL:KATA:1,2011-06-01T09:30:00Z,30.2583,-88.2131,0.0,3.31,231.2,-9999.0,'1111122,1111122,1111122' 
DISL,ioos:station:DISL:KATA:1,2011-06-01T10:00:00Z,30.2583,-88.2131,0.0,3.55,240.2,-9999.0,'1111122,1111122,1111122' 
DISL,ioos:station:DISL:KATA:1,2011-06-01T10:30:00Z,30.2583,-88.2131,0.0,3.27,303.7,-9999.0,'1111122,1111122,1111122' 
DISL,ioos:station:DISL:KATA:1,2011-06-01T11:00:00Z,30.2583,-88.2131,0.0,1.78,273.5,-9999.0,'1111122,1111122,1111122' 
DISL,ioos:station:DISL:KATA:1,2011-06-01T11:30:00Z,30.2583,-88.2131,0.0,2.54,292.7,-9999.0,'1111122,1111122,1111122' 
DISL,ioos:station:DISL:KATA:1,2011-06-01T12:00:00Z,30.2583,-88.2131,0.0,2.89,329.3,-9999.0,'1111122,1111122,1111122' 
DISL,ioos:station:DISL:KATA:1,2011-06-01T12:30:00Z,30.2583,-88.2131,0.0,3.64,342.3,-9999.0,'1111122,1111122,1111122' 
DISL,ioos:station:DISL:KATA:1,2011-06-01T13:00:00Z,30.2583,-88.2131,0.0,3.51,337.7,-9999.0,'1111122,1111122,1111122' 
DISL,ioos:station:DISL:KATA:1,2011-06-01T13:30:00Z,30.2583,-88.2131,0.0,2.81,325.0,-9999.0,'1111122,1111122,1111122' 
DISL,ioos:station:DISL:KATA:1,2011-06-01T14:00:00Z,30.2583,-88.2131,0.0,2.27,325.6,-9999.0,'1111122,1111122,1111122' 
DISL,ioos:station:DISL:KATA:1,2011-06-01T14:30:00Z,30.2583,-88.2131,0.0,2.26,347.1,-9999.0,'1111122,1111122,1111122' 
DISL,ioos:station:DISL:KATA:1,2011-06-01T15:00:00Z,30.2583,-88.2131,0.0,2.19,1.95,-9999.0,'1111122,1111122,1111122' 
DISL,ioos:station:DISL:KATA:1,2011-06-01T15:30:00Z,30.2583,-88.2131,0.0,1.59,23.6,-9999.0,'1111122,1111122,1111122' 
DISL,ioos:station:DISL:KATA:1,2011-06-01T16:00:00Z,30.2583,-88.2131,0.0,1.2,11.57,-9999.0,'1111122,1111122,1111122' 
DISL,ioos:station:DISL:KATA:1,2011-06-01T16:30:00Z,30.2583,-88.2131,0.0,1.95,49.2,-9999.0,'1111122,1111122,1111122' 
DISL,ioos:station:DISL:KATA:1,2011-06-01T17:00:00Z,30.2583,-88.2131,0.0,3.19,76.24,-9999.0,'1111122,1111122,1111122' 
DISL,ioos:station:DISL:KATA:1,2011-06-01T17:30:00Z,30.2583,-88.2131,0.0,3.29,68.92,-9999.0,'1111122,1111122,1111122' 
DISL,ioos:station:DISL:KATA:1,2011-06-01T18:00:00Z,30.2583,-88.2131,0.0,3.81,46.51,-9999.0,'1111122,1111122,1111122' 
DISL,ioos:station:DISL:KATA:1,2011-06-01T18:30:00Z,30.2583,-88.2131,0.0,6.48,33.45,-9999.0,'1111122,1111122,1111122' 
DISL,ioos:station:DISL:KATA:1,2011-06-01T19:00:00Z,30.2583,-88.2131,0.0,4.96,27.38,-9999.0,'1111122,1111122,1111122' 
DISL,ioos:station:DISL:KATA:1,2011-06-01T19:30:00Z,30.2583,-88.2131,0.0,3.37,250.8,-9999.0,'1111122,1111122,1111122' 
DISL,ioos:station:DISL:KATA:1,2011-06-01T20:00:00Z,30.2583,-88.2131,0.0,3.81,252.8,-9999.0,'1111122,1111122,1111122' 
DISL,ioos:station:DISL:KATA:1,2011-06-01T20:30:00Z,30.2583,-88.2131,0.0,4.33,254.9,-9999.0,'1111122,1111122,1111122' 
DISL,ioos:station:DISL:KATA:1,2011-06-01T21:00:00Z,30.2583,-88.2131,0.0,3.21,234.9,-9999.0,'1111122,1111122,1111122' 
DISL,ioos:station:DISL:KATA:1,2011-06-01T21:30:00Z,30.2583,-88.2131,0.0,4.24,242.8,-9999.0,'1111122,1111122,1111122' 
DISL,ioos:station:DISL:KATA:1,2011-06-01T22:00:00Z,30.2583,-88.2131,0.0,4.4,236.6,-9999.0,'1111122,1111122,1111122' 
DISL,ioos:station:DISL:KATA:1,2011-06-01T22:30:00Z,30.2583,-88.2131,0.0,5.07,214.3,-9999.0,'1111122,1111122,1111122' 
DISL,ioos:station:DISL:KATA:1,2011-06-01T23:00:00Z,30.2583,-88.2131,0.0,6.11,222.2,-9999.0,'1111122,1111122,1111122' 
DISL,ioos:station:DISL:KATA:1,2011-06-01T23:30:00Z,30.2583,-88.2131,0.0,5.37,225.0,-9999.0,'1111122,1111122,1111122' 
DISL,ioos:station:DISL:KATA:1,2011-06-02T00:00:00Z,30.2583,-88.2131,0.0,4.44,224.4,-9999.0,'1111122,1111122,1111122' 
DISL,ioos:station:DISL:KATA:1,2011-06-02T00:30:00Z,30.2583,-88.2131,0.0,4.54,226.9,-9999.0,'1111122,1111122,1111122' 
DISL,ioos:station:DISL:KATA:1,2011-06-02T01:00:00Z,30.2583,-88.2131,0.0,4.16,237.0,-9999.0,'1111122,1111122,1111122' 
DISL,ioos:station:DISL:KATA:1,2011-06-02T01:30:00Z,30.2583,-88.2131,0.0,3.12,312.6,-9999.0,'1111122,1111122,1111122' 
DISL,ioos:station:DISL:KATA:1,2011-06-02T02:00:00Z,30.2583,-88.2131,0.0,5.33,346.6,-9999.0,'1111122,1111122,1111122' 
DISL,ioos:station:DISL:KATA:1,2011-06-02T02:30:00Z,30.2583,-88.2131,0.0,4.67,347.4,-9999.0,'1111122,1111122,1111122' 
DISL,ioos:station:DISL:KATA:1,2011-06-02T03:00:00Z,30.2583,-88.2131,0.0,5.18,339.7,-9999.0,'1111122,1111122,1111122' 
DISL,ioos:station:DISL:KATA:1,2011-06-02T03:30:00Z,30.2583,-88.2131,0.0,6.2,338.3,-9999.0,'1111122,1111122,1111122' 
DISL,ioos:station:DISL:KATA:1,2011-06-02T04:00:00Z,30.2583,-88.2131,0.0,6.96,336.2,-9999.0,'1111122,1111122,1111122' 
DISL,ioos:station:DISL:KATA:1,2011-06-02T04:30:00Z,30.2583,-88.2131,0.0,8.11,338.9,-9999.0,'1111122,1111122,1111122' 
DISL,ioos:station:DISL:KATA:1,2011-06-02T05:00:00Z,30.2583,-88.2131,0.0,7.17,350.5,-9999.0,'1111122,1111122,1111122' 
DISL,ioos:station:DISL:KATA:1,2011-06-02T05:30:00Z,30.2583,-88.2131,0.0,7.16,351.1,-9999.0,'1111122,1111122,1111122' 
DISL,ioos:station:DISL:KATA:1,2011-06-02T06:00:00Z,30.2583,-88.2131,0.0,7.29,353.0,-9999.0,'1111122,1111122,1111122' 
DISL,ioos:station:DISL:KATA:1,2011-06-02T06:30:00Z,30.2583,-88.2131,0.0,7.39,1.402,-9999.0,'1111122,1111122,1111122' 
DISL,ioos:station:DISL:KATA:1,2011-06-02T07:00:00Z,30.2583,-88.2131,0.0,7.34,5.773,-9999.0,'1111122,1111122,1111122' 
DISL,ioos:station:DISL:KATA:1,2011-06-02T07:30:00Z,30.2583,-88.2131,0.0,7.39,12.46,-9999.0,'1111122,1111122,1111122' 
DISL,ioos:station:DISL:KATA:1,2011-06-02T08:00:00Z,30.2583,-88.2131,0.0,9.41,37.39,-9999.0,'1111122,1111122,1111122' 
DISL,ioos:station:DISL:KATA:1,2011-06-02T08:30:00Z,30.2583,-88.2131,0.0,8.74,54.68,-9999.0,'1111122,1111122,1111122' 
DISL,ioos:station:DISL:KATA:1,2011-06-02T09:00:00Z,30.2583,-88.2131,0.0,10.08,70.69,-9999.0,'1111122,1111122,1111122' 
DISL,ioos:station:DISL:KATA:1,2011-06-02T09:30:00Z,30.2583,-88.2131,0.0,9.99,107.0,-9999.0,'1111122,1111122,1111122' 
DISL,ioos:station:DISL:KATA:1,2011-06-02T10:00:00Z,30.2583,-88.2131,0.0,11.4,127.0,-9999.0,'1111122,1111122,1111122' 
DISL,ioos:station:DISL:KATA:1,2011-06-02T10:30:00Z,30.2583,-88.2131,0.0,10.93,139.1,-9999.0,'1111122,1111122,1111122' 
DISL,ioos:station:DISL:KATA:1,2011-06-02T11:00:00Z,30.2583,-88.2131,0.0,9.52,145.9,-9999.0,'1111122,1111122,1111122' 
DISL,ioos:station:DISL:KATA:1,2011-06-02T11:30:00Z,30.2583,-88.2131,0.0,9.42,146.4,-9999.0,'1111122,1111122,1111122' 
DISL,ioos:station:DISL:KATA:1,2011-06-02T12:00:00Z,30.2583,-88.2131,0.0,8.8,152.1,-9999.0,'1111122,1111122,1111122' 
DISL,ioos:station:DISL:KATA:1,2011-06-02T12:30:00Z,30.2583,-88.2131,0.0,6.54,154.5,-9999.0,'1111122,1111122,1111122' 
DISL,ioos:station:DISL:KATA:1,2011-06-02T13:00:00Z,30.2583,-88.2131,0.0,5.64,157.3,-9999.0,'1111122,1111122,1111122' 
DISL,ioos:station:DISL:KATA:1,2011-06-02T13:30:00Z,30.2583,-88.2131,0.0,3.92,155.8,-9999.0,'1111122,1111122,1111122' 
DISL,ioos:station:DISL:KATA:1,2011-06-02T14:00:00Z,30.2583,-88.2131,0.0,3.59,132.3,-9999.0,'1111122,1111122,1111122' 
DISL,ioos:station:DISL:KATA:1,2011-06-02T14:30:00Z,30.2583,-88.2131,0.0,3.58,122.1,-9999.0,'1111122,1111122,1111122' 
DISL,ioos:station:DISL:KATA:1,2011-06-02T15:00:00Z,30.2583,-88.2131,0.0,3.97,127.8,-9999.0,'1111122,1111122,1111122' 
DISL,ioos:station:DISL:KATA:1,2011-06-02T15:30:00Z,30.2583,-88.2131,0.0,3.34,112.8,-9999.0,'1111122,1111122,1111122' 
DISL,ioos:station:DISL:KATA:1,2011-06-02T16:00:00Z,30.2583,-88.2131,0.0,3.52,112.1,-9999.0,'1111122,1111122,1111122' 
DISL,ioos:station:DISL:KATA:1,2011-06-02T16:30:00Z,30.2583,-88.2131,0.0,3.91,103.9,-9999.0,'1111122,1111122,1111122' 
DISL,ioos:station:DISL:KATA:1,2011-06-02T17:00:00Z,30.2583,-88.2131,0.0,4.82,110.7,-9999.0,'1111122,1111122,1111122' 
DISL,ioos:station:DISL:KATA:1,2011-06-02T17:30:00Z,30.2583,-88.2131,0.0,4.4,117.9,-9999.0,'1111122,1111122,1111122' 
DISL,ioos:station:DISL:KATA:1,2011-06-02T18:00:00Z,30.2583,-88.2131,0.0,4.77,129.7,-9999.0,'1111122,1111122,1111122' 
DISL,ioos:station:DISL:KATA:1,2011-06-02T18:30:00Z,30.2583,-88.2131,0.0,5.14,120.6,-9999.0,'1111122,1111122,1111122' 
DISL,ioos:station:DISL:KATA:1,2011-06-02T19:00:00Z,30.2583,-88.2131,0.0,4.67,122.2,-9999.0,'1111122,1111122,1111122' 
DISL,ioos:station:DISL:KATA:1,2011-06-02T19:30:00Z,30.2583,-88.2131,0.0,4.47,125.0,-9999.0,'1111122,1111122,1111122' 
DISL,ioos:station:DISL:KATA:1,2011-06-02T20:00:00Z,30.2583,-88.2131,0.0,5.07,124.0,-9999.0,'1111122,1111122,1111122' 
DISL,ioos:station:DISL:KATA:1,2011-06-02T20:30:00Z,30.2583,-88.2131,0.0,5.44,130.0,-9999.0,'1111122,1111122,1111122' 
DISL,ioos:station:DISL:KATA:1,2011-06-02T21:00:00Z,30.2583,-88.2131,0.0,6.19,139.8,-9999.0,'1111122,1111122,1111122' 
DISL,ioos:station:DISL:KATA:1,2011-06-02T21:30:00Z,30.2583,-88.2131,0.0,5.86,137.6,-9999.0,'1111122,1111122,1111122' 
DISL,ioos:station:DISL:KATA:1,2011-06-02T22:00:00Z,30.2583,-88.2131,0.0,5.55,142.3,-9999.0,'1111122,1111122,1111122' 
DISL,ioos:station:DISL:KATA:1,2011-06-02T22:30:00Z,30.2583,-88.2131,0.0,6.1,144.9,-9999.0,'1111122,1111122,1111122' 
DISL,ioos:station:DISL:KATA:1,2011-06-02T23:00:00Z,30.2583,-88.2131,0.0,6.61,146.5,-9999.0,'1111122,1111122,1111122' 
DISL,ioos:station:DISL:KATA:1,2011-06-02T23:30:00Z,30.2583,-88.2131,0.0,6.67,149.9,-9999.0,'1111122,1111122,1111122' 
DISL,ioos:station:DISL:KATA:1,2011-06-03T00:00:00Z,30.2583,-88.2131,0.0,6.03,150.9,-9999.0,'1111122,1111122,1111122' 
DISL,ioos:station:DISL:KATA:1,2011-06-03T00:30:00Z,30.2583,-88.2131,0.0,6.23,152.9,-9999.0,'1111122,1111122,1111122' 
DISL,ioos:station:DISL:KATA:1,2011-06-03T01:00:00Z,30.2583,-88.2131,0.0,5.05,166.0,-9999.0,'1111122,1111122,1111122' 
DISL,ioos:station:DISL:KATA:1,2011-06-03T01:30:00Z,30.2583,-88.2131,0.0,4.94,162.9,-9999.0,'1111122,1111122,1111122' 
DISL,ioos:station:DISL:KATA:1,2011-06-03T02:00:00Z,30.2583,-88.2131,0.0,4.67,163.0,-9999.0,'1111122,1111122,1111122' 
DISL,ioos:station:DISL:KATA:1,2011-06-03T02:30:00Z,30.2583,-88.2131,0.0,4.62,167.6,-9999.0,'1111122,1111122,1111122' 
DISL,ioos:station:DISL:KATA:1,2011-06-03T03:00:00Z,30.2583,-88.2131,0.0,4.57,157.5,-9999.0,'1111122,1111122,1111122' 
DISL,ioos:station:DISL:KATA:1,2011-06-03T03:30:00Z,30.2583,-88.2131,0.0,4.15,163.5,-9999.0,'1111122,1111122,1111122' 
DISL,ioos:station:DISL:KATA:1,2011-06-03T04:00:00Z,30.2583,-88.2131,0.0,4.89,165.9,-9999.0,'1111122,1111122,1111122' 
DISL,ioos:station:DISL:KATA:1,2011-06-03T04:30:00Z,30.2583,-88.2131,0.0,4.72,171.8,-9999.0,'1111122,1111122,1111122' 
DISL,ioos:station:DISL:KATA:1,2011-06-03T05:00:00Z,30.2583,-88.2131,0.0,4.46,166.6,-9999.0,'1111122,1111122,1111122' 
DISL,ioos:station:DISL:KATA:1,2011-06-03T05:30:00Z,30.2583,-88.2131,0.0,4.85,167.7,-9999.0,'1111122,1111122,1111122' 
DISL,ioos:station:DISL:KATA:1,2011-06-03T06:00:00Z,30.2583,-88.2131,0.0,4.79,165.4,-9999.0,'1111122,1111122,1111122' 
DISL,ioos:station:DISL:KATA:1,2011-06-03T06:30:00Z,30.2583,-88.2131,0.0,3.64,184.6,-9999.0,'1111122,1111122,1111122' 
DISL,ioos:station:DISL:KATA:1,2011-06-03T07:00:00Z,30.2583,-88.2131,0.0,2.44,204.6,-9999.0,'1111122,1111122,1111122' 
DISL,ioos:station:DISL:KATA:1,2011-06-03T07:30:00Z,30.2583,-88.2131,0.0,2.01,216.1,-9999.0,'1111122,1111122,1111122' 
DISL,ioos:station:DISL:KATA:1,2011-06-03T08:00:00Z,30.2583,-88.2131,0.0,2.21,191.0,-9999.0,'1111122,1111122,1111122' 
DISL,ioos:station:DISL:KATA:1,2011-06-03T08:30:00Z,30.2583,-88.2131,0.0,2.2,198.5,-9999.0,'1111122,1111122,1111122' 
DISL,ioos:station:DISL:KATA:1,2011-06-03T09:00:00Z,30.2583,-88.2131,0.0,1.99,191.6,-9999.0,'1111122,1111122,1111122' 
DISL,ioos:station:DISL:KATA:1,2011-06-03T09:30:00Z,30.2583,-88.2131,0.0,0.53,267.9,-9999.0,'1111122,1111122,1111122' 
DISL,ioos:station:DISL:KATA:1,2011-06-03T10:00:00Z,30.2583,-88.2131,0.0,0.22,7.336,-9999.0,'1111122,1111122,1111122' 
DISL,ioos:station:DISL:KATA:1,2011-06-03T10:30:00Z,30.2583,-88.2131,0.0,0.87,38.53,-9999.0,'1111122,1111122,1111122' 
DISL,ioos:station:DISL:KATA:1,2011-06-03T11:00:00Z,30.2583,-88.2131,0.0,2.26,1.605,-9999.0,'1111122,1111122,1111122' 
DISL,ioos:station:DISL:KATA:1,2011-06-03T11:30:00Z,30.2583,-88.2131,0.0,3.0,5.185,-9999.0,'1111122,1111122,1111122' 
DISL,ioos:station:DISL:KATA:1,2011-06-03T12:00:00Z,30.2583,-88.2131,0.0,2.57,2.016,-9999.0,'1111122,1111122,1111122' 
DISL,ioos:station:DISL:KATA:1,2011-06-03T12:30:00Z,30.2583,-88.2131,0.0,1.98,8.7,-9999.0,'1111122,1111122,1111122' 
DISL,ioos:station:DISL:KATA:1,2011-06-03T13:00:00Z,30.2583,-88.2131,0.0,1.38,40.89,-9999.0,'1111122,1111122,1111122' 
DISL,ioos:station:DISL:KATA:1,2011-06-03T13:30:00Z,30.2583,-88.2131,0.0,1.68,35.13,-9999.0,'1111122,1111122,1111122' 
DISL,ioos:station:DISL:KATA:1,2011-06-03T14:00:00Z,30.2583,-88.2131,0.0,1.5,12.55,-9999.0,'1111122,1111122,1111122' 
DISL,ioos:station:DISL:KATA:1,2011-06-03T14:30:00Z,30.2583,-88.2131,0.0,0.76,62.22,-9999.0,'1111122,1111122,1111122' 
DISL,ioos:station:DISL:KATA:1,2011-06-03T15:00:00Z,30.2583,-88.2131,0.0,1.06,42.46,-9999.0,'1111122,1111122,1111122' 
DISL,ioos:station:DISL:KATA:1,2011-06-03T15:30:00Z,30.2583,-88.2131,0.0,1.74,42.44,-9999.0,'1111122,1111122,1111122' 
DISL,ioos:station:DISL:KATA:1,2011-06-03T16:00:00Z,30.2583,-88.2131,0.0,1.06,51.02,-9999.0,'1111122,1111122,1111122' 
DISL,ioos:station:DISL:KATA:1,2011-06-03T16:30:00Z,30.2583,-88.2131,0.0,0.93,38.57,-9999.0,'1111122,1111122,1111122' 
DISL,ioos:station:DISL:KATA:1,2011-06-03T17:00:00Z,30.2583,-88.2131,0.0,1.26,8.66,-9999.0,'1111122,1111122,1111122' 
DISL,ioos:station:DISL:KATA:1,2011-06-03T17:30:00Z,30.2583,-88.2131,0.0,0.4,91.5,-9999.0,'1111122,1111122,1111122' 
DISL,ioos:station:DISL:KATA:1,2011-06-03T18:00:00Z,30.2583,-88.2131,0.0,2.33,156.2,-9999.0,'1111122,1111122,1111122' 
DISL,ioos:station:DISL:KATA:1,2011-06-03T18:30:00Z,30.2583,-88.2131,0.0,1.92,181.9,-9999.0,'1111122,1111122,1111122' 
DISL,ioos:station:DISL:KATA:1,2011-06-03T19:00:00Z,30.2583,-88.2131,0.0,3.34,199.2,-9999.0,'1111122,1111122,1111122' 
DISL,ioos:station:DISL:KATA:1,2011-06-03T19:30:00Z,30.2583,-88.2131,0.0,4.82,187.2,-9999.0,'1111122,1111122,1111122' 
DISL,ioos:station:DISL:KATA:1,2011-06-03T20:00:00Z,30.2583,-88.2131,0.0,4.67,196.0,-9999.0,'1111122,1111122,1111122' 
DISL,ioos:station:DISL:KATA:1,2011-06-03T20:30:00Z,30.2583,-88.2131,0.0,4.94,187.2,-9999.0,'1111122,1111122,1111122' 
DISL,ioos:station:DISL:KATA:1,2011-06-03T21:00:00Z,30.2583,-88.2131,0.0,5.33,200.3,-9999.0,'1111122,1111122,1111122' 
DISL,ioos:station:DISL:KATA:1,2011-06-03T21:30:00Z,30.2583,-88.2131,0.0,5.74,201.5,-9999.0,'1111122,1111122,1111122' 
DISL,ioos:station:DISL:KATA:1,2011-06-03T22:00:00Z,30.2583,-88.2131,0.0,6.11,203.8,-9999.0,'1111122,1111122,1111122' 
DISL,ioos:station:DISL:KATA:1,2011-06-03T22:30:00Z,30.2583,-88.2131,0.0,6.05,214.3,-9999.0,'1111122,1111122,1111122' 
DISL,ioos:station:DISL:KATA:1,2011-06-03T23:00:00Z,30.2583,-88.2131,0.0,6.21,212.4,-9999.0,'1111122,1111122,1111122' 
DISL,ioos:station:DISL:KATA:1,2011-06-03T23:30:00Z,30.2583,-88.2131,0.0,6.03,209.7,-9999.0,'1111122,1111122,1111122' 
DISL,ioos:station:DISL:KATA:1,2011-06-04T00:00:00Z,30.2583,-88.2131,0.0,6.07,212.5,-9999.0,'1111122,1111122,1111122' 
DISL,ioos:station:DISL:KATA:1,2011-06-04T00:30:00Z,30.2583,-88.2131,0.0,5.54,220.4,-9999.0,'1111122,1111122,1111122' 
DISL,ioos:station:DISL:KATA:1,2011-06-04T01:00:00Z,30.2583,-88.2131,0.0,3.36,232.1,-9999.0,'1111122,1111122,1111122' 
DISL,ioos:station:DISL:KATA:1,2011-06-04T01:30:00Z,30.2583,-88.2131,0.0,3.95,247.2,-9999.0,'1111122,1111122,1111122' 
DISL,ioos:station:DISL:KATA:1,2011-06-04T02:00:00Z,30.2583,-88.2131,0.0,4.69,243.1,-9999.0,'1111122,1111122,1111122' 
DISL,ioos:station:DISL:KATA:1,2011-06-04T02:30:00Z,30.2583,-88.2131,0.0,5.58,238.9,-9999.0,'1111122,1111122,1111122' 
DISL,ioos:station:DISL:KATA:1,2011-06-04T03:00:00Z,30.2583,-88.2131,0.0,5.56,256.3,-9999.0,'1111122,1111122,1111122' 
DISL,ioos:station:DISL:KATA:1,2011-06-04T03:30:00Z,30.2583,-88.2131,0.0,4.24,196.5,-9999.0,'1111122,1111122,1111122' 
DISL,ioos:station:DISL:KATA:1,2011-06-04T04:00:00Z,30.2583,-88.2131,0.0,4.9,213.8,-9999.0,'1111122,1111122,1111122' 
DISL,ioos:station:DISL:KATA:1,2011-06-04T04:30:00Z,30.2583,-88.2131,0.0,5.57,247.5,-9999.0,'1111122,1111122,1111122' 
DISL,ioos:station:DISL:KATA:1,2011-06-04T05:00:00Z,30.2583,-88.2131,0.0,5.74,253.7,-9999.0,'1111122,1111122,1111122' 
DISL,ioos:station:DISL:KATA:1,2011-06-04T05:30:00Z,30.2583,-88.2131,0.0,3.85,221.8,-9999.0,'1111122,1111122,1111122' 
DISL,ioos:station:DISL:KATA:1,2011-06-04T06:00:00Z,30.2583,-88.2131,0.0,3.66,226.1,-9999.0,'1111122,1111122,1111122' 
DISL,ioos:station:DISL:KATA:1,2011-06-04T06:30:00Z,30.2583,-88.2131,0.0,4.26,241.9,-9999.0,'1111122,1111122,1111122' 
DISL,ioos:station:DISL:KATA:1,2011-06-04T07:00:00Z,30.2583,-88.2131,0.0,2.56,237.0,-9999.0,'1111122,1111122,1111122' 
DISL,ioos:station:DISL:KATA:1,2011-06-04T07:30:00Z,30.2583,-88.2131,0.0,3.84,236.1,-9999.0,'1111122,1111122,1111122' 
DISL,ioos:station:DISL:KATA:1,2011-06-04T08:00:00Z,30.2583,-88.2131,0.0,4.83,264.6,-9999.0,'1111122,1111122,1111122' 
DISL,ioos:station:DISL:KATA:1,2011-06-04T08:30:00Z,30.2583,-88.2131,0.0,5.36,265.0,-9999.0,'1111122,1111122,1111122' 
DISL,ioos:station:DISL:KATA:1,2011-06-04T09:00:00Z,30.2583,-88.2131,0.0,5.49,277.0,-9999.0,'1111122,1111122,1111122' 
DISL,ioos:station:DISL:KATA:1,2011-06-04T09:30:00Z,30.2583,-88.2131,0.0,5.86,284.9,-9999.0,'1111122,1111122,1111122' 
DISL,ioos:station:DISL:KATA:1,2011-06-04T10:00:00Z,30.2583,-88.2131,0.0,5.0,281.8,-9999.0,'1111122,1111122,1111122' 
DISL,ioos:station:DISL:KATA:1,2011-06-04T10:30:00Z,30.2583,-88.2131,0.0,5.54,297.7,-9999.0,'1111122,1111122,1111122' 
DISL,ioos:station:DISL:KATA:1,2011-06-04T11:00:00Z,30.2583,-88.2131,0.0,4.34,311.8,-9999.0,'1111122,1111122,1111122' 
DISL,ioos:station:DISL:KATA:1,2011-06-04T11:30:00Z,30.2583,-88.2131,0.0,4.83,303.8,-9999.0,'1111122,1111122,1111122' 
DISL,ioos:station:DISL:KATA:1,2011-06-04T12:00:00Z,30.2583,-88.2131,0.0,6.45,301.7,-9999.0,'1111122,1111122,1111122' 
DISL,ioos:station:DISL:KATA:1,2011-06-04T12:30:00Z,30.2583,-88.2131,0.0,6.37,301.7,-9999.0,'1111122,1111122,1111122' 
DISL,ioos:station:DISL:KATA:1,2011-06-04T13:00:00Z,30.2583,-88.2131,0.0,6.61,296.3,-9999.0,'1111122,1111122,1111122' 
DISL,ioos:station:DISL:KATA:1,2011-06-04T13:30:00Z,30.2583,-88.2131,0.0,6.38,290.6,-9999.0,'1111122,1111122,1111122' 
DISL,ioos:station:DISL:KATA:1,2011-06-04T14:00:00Z,30.2583,-88.2131,0.0,7.19,293.4,-9999.0,'1111122,1111122,1111122' 
DISL,ioos:station:DISL:KATA:1,2011-06-04T14:30:00Z,30.2583,-88.2131,0.0,7.56,302.7,-9999.0,'1111122,1111122,1111122' 
DISL,ioos:station:DISL:KATA:1,2011-06-04T15:00:00Z,30.2583,-88.2131,0.0,5.33,301.4,-9999.0,'1111122,1111122,1111122' 
DISL,ioos:station:DISL:KATA:1,2011-06-04T15:30:00Z,30.2583,-88.2131,0.0,4.35,294.9,-9999.0,'1111122,1111122,1111122' 
DISL,ioos:station:DISL:KATA:1,2011-06-04T16:00:00Z,30.2583,-88.2131,0.0,3.91,287.0,-9999.0,'1111122,1111122,1111122' 
DISL,ioos:station:DISL:KATA:1,2011-06-04T16:30:00Z,30.2583,-88.2131,0.0,3.6,280.3,-9999.0,'1111122,1111122,1111122' 
DISL,ioos:station:DISL:KATA:1,2011-06-04T17:00:00Z,30.2583,-88.2131,0.0,4.26,261.5,-9999.0,'1111122,1111122,1111122' 
DISL,ioos:station:DISL:KATA:1,2011-06-04T17:30:00Z,30.2583,-88.2131,0.0,4.14,230.7,-9999.0,'1111122,1111122,1111122' 
DISL,ioos:station:DISL:KATA:1,2011-06-04T18:00:00Z,30.2583,-88.2131,0.0,2.85,237.7,-9999.0,'1111122,1111122,1111122' 
DISL,ioos:station:DISL:KATA:1,2011-06-04T18:30:00Z,30.2583,-88.2131,0.0,2.58,239.4,-9999.0,'1111122,1111122,1111122' 
DISL,ioos:station:DISL:KATA:1,2011-06-04T19:00:00Z,30.2583,-88.2131,0.0,3.03,246.0,-9999.0,'1111122,1111122,1111122' 
DISL,ioos:station:DISL:KATA:1,2011-06-04T19:30:00Z,30.2583,-88.2131,0.0,4.16,246.2,-9999.0,'1111122,1111122,1111122' 
DISL,ioos:station:DISL:KATA:1,2011-06-04T20:00:00Z,30.2583,-88.2131,0.0,5.45,239.7,-9999.0,'1111122,1111122,1111122' 
DISL,ioos:station:DISL:KATA:1,2011-06-04T20:30:00Z,30.2583,-88.2131,0.0,5.59,238.3,-9999.0,'1111122,1111122,1111122' 
DISL,ioos:station:DISL:KATA:1,2011-06-04T21:00:00Z,30.2583,-88.2131,0.0,6.5,236.0,-9999.0,'1111122,1111122,1111122' 
DISL,ioos:station:DISL:KATA:1,2011-06-04T21:30:00Z,30.2583,-88.2131,0.0,6.13,241.2,-9999.0,'1111122,1111122,1111122' 
DISL,ioos:station:DISL:KATA:1,2011-06-04T22:00:00Z,30.2583,-88.2131,0.0,6.39,248.3,-9999.0,'1111122,1111122,1111122' 
DISL,ioos:station:DISL:KATA:1,2011-06-04T22:30:00Z,30.2583,-88.2131,0.0,5.95,250.2,-9999.0,'1111122,1111122,1111122' 
DISL,ioos:station:DISL:KATA:1,2011-06-04T23:00:00Z,30.2583,-88.2131,0.0,4.66,247.9,-9999.0,'1111122,1111122,1111122' 
DISL,ioos:station:DISL:KATA:1,2011-06-04T23:30:00Z,30.2583,-88.2131,0.0,4.17,230.4,-9999.0,'1111122,1111122,1111122' 
DISL,ioos:station:DISL:KATA:1,2011-06-05T00:00:00Z,30.2583,-88.2131,0.0,4.51,209.0,-9999.0,'1111122,1111122,1111122' 
DISL,ioos:station:DISL:KATA:1,2011-06-05T00:30:00Z,30.2583,-88.2131,0.0,4.13,198.2,-9999.0,'1111122,1111122,1111122' 
DISL,ioos:station:DISL:KATA:1,2011-06-05T01:00:00Z,30.2583,-88.2131,0.0,5.59,218.0,-9999.0,'1111122,1111122,1111122' 
DISL,ioos:station:DISL:KATA:1,2011-06-05T01:30:00Z,30.2583,-88.2131,0.0,3.29,219.3,-9999.0,'1111122,1111122,1111122' 
DISL,ioos:station:DISL:KATA:1,2011-06-05T02:00:00Z,30.2583,-88.2131,0.0,1.87,212.6,-9999.0,'1111122,1111122,1111122' 
DISL,ioos:station:DISL:KATA:1,2011-06-05T02:30:00Z,30.2583,-88.2131,0.0,3.24,20.77,-9999.0,'1111122,1111122,1111122' 
DISL,ioos:station:DISL:KATA:1,2011-06-05T03:00:00Z,30.2583,-88.2131,0.0,2.28,122.0,-9999.0,'1111122,1111122,1111122' 
DISL,ioos:station:DISL:KATA:1,2011-06-05T03:30:00Z,30.2583,-88.2131,0.0,2.16,49.06,-9999.0,'1111122,1111122,1111122' 
DISL,ioos:station:DISL:KATA:1,2011-06-05T04:00:00Z,30.2583,-88.2131,0.0,5.69,27.84,-9999.0,'1111122,1111122,1111122' 
DISL,ioos:station:DISL:KATA:1,2011-06-05T04:30:00Z,30.2583,-88.2131,0.0,5.67,23.8,-9999.0,'1111122,1111122,1111122' 